CW0962 Weather Reports


Display with metric or nautical units.
time (UTC)temp
F
wind
direction
speed
MPH
gust
MPH
rain 1hr
in
rain 24hr
in
rain mn
in
humidity
%
barometer
mb
20240301184006 39 211 4.0 14.0 0.00 0.00 0.00 42 1032.8
20240301183503 39 197 6.0 20.0 0.00 0.00 0.00 43 1032.9
20240301183007 38 187 7.0 20.0 0.00 0.00 0.00 43 1032.9
20240301181504 38 191 10.0 18.0 0.00 0.00 0.00 45 1033.2
20240301180505 38 208 7.0 12.0 0.00 0.00 0.00 43 1033.3
20240301180011 38 206 5.0 12.0 0.00 0.00 0.00 44 1033.3
20240301175008 38 213 1.0 14.0 0.00 0.00 0.00 45 1033.6
20240301174506 37 220 8.0 14.0 0.00 0.00 0.00 47 1033.7
20240301173508 37 227 5.0 13.0 0.00 0.00 0.00 43 1033.7
20240301173008 37 284 4.0 13.0 0.00 0.00 0.00 44 1033.8
20240301172504 37 189 2.0 13.0 0.00 0.00 0.00 43 1033.8
20240301172007 36 196 9.0 13.0 0.00 0.00 0.00 47 1033.8
20240301171509 36 259 5.0 11.0 0.00 0.00 0.00 46 1033.9
20240301171021 36 260 5.0 12.0 0.00 0.00 0.00 47 1034.0
20240301170505 36 107 6.0 12.0 0.00 0.00 0.00 46 1034.1
20240301170009 36 148 8.0 9.0 0.00 0.00 0.00 46 1034.1
20240301165504 36 45 2.0 14.0 0.00 0.00 0.00 44 1034.3
20240301165006 35 233 4.0 14.0 0.00 0.00 0.00 46 1034.5
20240301164506 35 153 3.0 11.0 0.00 0.00 0.00 44 1034.3
20240301164009 35 180 2.0 13.0 0.00 0.00 0.00 46 1034.2
20240301163504 35 165 2.0 13.0 0.00 0.00 0.00 45 1034.4
20240301163005 35 221 7.0 12.0 0.00 0.00 0.00 46 1034.5
20240301162504 34 205 9.0 12.0 0.00 0.00 0.00 46 1034.6
20240301162008 34 218 10.0 12.0 0.00 0.00 0.00 44 1034.6
20240301161504 34 138 1.0 12.0 0.00 0.00 0.00 44 1034.7
20240301160506 34 147 9.0 11.0 0.00 0.00 0.00 47 1034.9
20240301160009 33 223 3.0 11.0 0.00 0.00 0.00 47 1034.8
20240301155504 33 152 2.0 11.0 0.00 0.00 0.00 46 1035.0
20240301155006 32 268 1.0 11.0 0.00 0.00 0.00 47 1034.9
20240301154507 32 277 5.0 11.0 0.00 0.00 0.00 46 1034.9
20240301154007 32 252 4.0 11.0 0.00 0.00 0.00 50 1034.9
20240301153506 31 152 1.0 11.0 0.00 0.00 0.00 50 1034.9
20240301153011 30 207 9.0 12.0 0.00 0.00 0.00 49 1034.9
20240301152009 31 261 9.0 12.0 0.00 0.00 0.00 51 1034.9
20240301151506 30 199 5.0 9.0 0.00 0.00 0.00 51 1034.8
20240301151014 30 211 7.0 8.0 0.00 0.00 0.00 50 1035.0
20240301150503 30 257 5.0 10.0 0.00 0.00 0.00 52 1034.9
20240301150011 30 196 6.0 10.0 0.00 0.00 0.00 50 1035.0
20240301145507 30 196 4.0 8.0 0.00 0.00 0.00 51 1034.9
20240301145007 29 147 4.0 8.0 0.00 0.00 0.00 51 1034.9
20240301144507 29 134 4.0 9.0 0.00 0.00 0.00 49 1034.8
20240301144007 29 241 4.0 12.0 0.00 0.00 0.00 50 1034.9
20240301143505 28 152 1.0 12.0 0.00 0.00 0.00 51 1034.9
20240301143008 28 156 6.0 11.0 0.00 0.00 0.00 51 1035.0
20240301142504 29 196 6.0 13.0 0.00 0.00 0.00 52 1035.0
20240301142004 29 164 8.0 13.0 0.00 0.00 0.00 53 1035.0
20240301141506 29 234 3.0 10.0 0.00 0.00 0.00 57 1035.0
20240301141012 28 212 1.0 10.0 0.00 0.00 0.00 58 1035.0
20240301140506 28 178 2.0 10.0 0.00 0.00 0.00 56 1035.1
20240301140019 27 163 7.0 7.0 0.00 0.00 0.00 53 1035.2
20240301135009 26 190 1.0 6.0 0.00 0.00 0.00 51 1035.0
20240301134507 27 153 1.0 7.0 0.00 0.00 0.00 52 1034.9
20240301133504 26 183 7.0 7.0 0.00 0.00 0.00 51 1035.0
20240301132505 26 143 1.0 5.0 0.00 0.00 0.00 54 1034.9
20240301132006 26 139 2.0 5.0 0.00 0.00 0.00 57 1034.9
20240301131509 26 148 0.0 4.0 0.00 0.00 0.00 60 1034.8
20240301130505 25 181 2.0 4.0 0.00 0.00 0.00 65 1034.7
20240301125504 24 175 2.0 5.0 0.00 0.00 0.00 67 1034.6
20240301124506 24 207 0.0 4.0 0.00 0.00 0.00 71 1034.5
20240301124007 23 208 1.0 4.0 0.00 0.00 0.00 74 1034.5
20240301123506 23 209 2.0 2.0 0.00 0.00 0.00 76 1034.3
20240301123012 23 209 1.0 1.0 0.00 0.00 0.00 77 1034.3
20240301122509 22 209 0.0 0.0 0.00 0.00 0.00 78 1034.3
20240301122007 22 209 0.0 0.0 0.00 0.00 0.00 79 1034.1
20240301121507 21 209 0.0 0.0 0.00 0.00 0.00 79 1034.1
20240301120011 19 209 0.0 1.0 0.00 0.00 0.00 79 1033.9
20240301115507 19 209 0.0 0.0 0.00 0.00 0.00 78 1033.9
20240301115009 19 209 0.0 0.0 0.00 0.00 0.00 78 1033.8
20240301114508 19 209 0.0 0.0 0.00 0.00 0.00 78 1033.7
20240301114007 19 209 0.0 1.0 0.00 0.00 0.00 77 1033.5
20240301113504 19 209 0.0 1.0 0.00 0.00 0.00 77 1033.5
20240301113009 19 209 0.0 1.0 0.00 0.00 0.00 77 1033.4
20240301112509 19 209 0.0 1.0 0.00 0.00 0.00 77 1033.2
20240301112006 19 209 0.0 1.0 0.00 0.00 0.00 76 1033.1
20240301111505 19 209 0.0 0.0 0.00 0.00 0.00 76 1033.0
20240301111023 19 209 0.0 0.0 0.00 0.00 0.00 75 1032.9
20240301110505 19 209 0.0 1.0 0.00 0.00 0.00 75 1032.8
20240301110010 19 209 0.0 1.0 0.00 0.00 0.00 75 1032.7
20240301105506 20 209 0.0 1.0 0.00 0.00 0.00 74 1032.7
20240301105008 19 209 0.0 1.0 0.00 0.00 0.00 74 1032.8
20240301104506 19 209 0.0 1.0 0.00 0.00 0.00 73 1032.7
20240301104004 20 209 0.0 1.0 0.00 0.00 0.00 73 1032.5
20240301103506 20 209 0.0 1.0 0.00 0.00 0.00 72 1032.5
20240301102504 20 209 0.0 1.0 0.00 0.00 0.00 71 1032.1
20240301102007 20 209 0.0 0.0 0.00 0.00 0.00 71 1032.0
20240301101506 20 209 0.0 0.0 0.00 0.00 0.00 71 1032.0
20240301101008 21 209 0.0 0.0 0.00 0.00 0.00 71 1031.9
20240301100504 21 209 0.0 0.0 0.00 0.00 0.00 70 1031.6
20240301100009 21 209 0.0 1.0 0.00 0.00 0.00 70 1031.5
20240301095506 21 209 0.0 1.0 0.00 0.00 0.00 70 1031.4
20240301095006 21 209 1.0 1.0 0.00 0.00 0.00 70 1031.4
20240301094007 21 209 0.0 2.0 0.00 0.00 0.00 70 1031.3
20240301093504 21 202 0.0 2.0 0.00 0.00 0.00 69 1031.2
20240301093006 21 202 0.0 4.0 0.00 0.00 0.00 69 1031.2
20240301092504 21 202 1.0 4.0 0.00 0.00 0.00 69 1031.1
20240301092006 21 255 0.0 5.0 0.00 0.00 0.00 68 1030.9
20240301091010 21 250 0.0 6.0 0.00 0.00 0.00 69 1030.7
20240301090507 22 250 0.0 6.0 0.00 0.00 0.00 70 1030.7
20240301090009 22 258 0.0 5.0 0.00 0.00 0.00 69 1030.5
20240301085505 22 240 0.0 5.0 0.00 0.00 0.00 69 1030.4
20240301085007 22 227 0.0 2.0 0.00 0.00 0.00 68 1030.3
20240301084009 22 229 0.0 6.0 0.00 0.00 0.00 68 1030.3
20240301083012 22 245 2.0 5.0 0.00 0.00 0.00 68 1030.2
20240301082008 22 201 0.0 5.0 0.00 0.00 0.00 68 1029.9
20240301081007 22 232 0.0 6.0 0.00 0.00 0.00 67 1029.5
20240301080506 22 236 1.0 5.0 0.00 0.00 0.00 66 1029.5
20240301080012 22 239 1.0 2.0 0.00 0.00 0.00 66 1029.5
20240301075508 22 197 0.0 2.0 0.00 0.00 0.00 66 1029.6
20240301074505 22 232 0.0 5.0 0.00 0.00 0.00 65 1029.4
20240301074012 22 232 1.0 7.0 0.00 0.00 0.00 65 1029.3
20240301073505 22 240 0.0 7.0 0.00 0.00 0.00 65 1029.1
20240301073009 22 231 0.0 4.0 0.00 0.00 0.00 66 1029.1
20240301072506 22 233 1.0 5.0 0.00 0.00 0.00 65 1029.1
20240301071506 22 248 0.0 4.0 0.00 0.00 0.00 65 1029.0
20240301071009 23 245 0.0 6.0 0.00 0.00 0.00 65 1029.0
20240301070507 23 245 0.0 6.0 0.00 0.00 0.00 64 1028.9
20240301070009 23 289 0.0 7.0 0.00 0.00 0.00 64 1028.9
20240301065005 23 186 0.0 5.0 0.00 0.07 0.00 63 1028.8
20240301064508 23 236 0.0 5.0 0.00 0.07 0.00 62 1028.8
20240301064007 23 289 0.0 5.0 0.00 0.07 0.00 61 1028.8
20240301063504 23 256 0.0 6.0 0.00 0.07 0.00 59 1028.8
20240301063009 24 213 4.0 6.0 0.00 0.07 0.00 58 1028.8
20240301062510 24 296 0.0 6.0 0.00 0.07 0.00 57 1028.8
20240301062006 24 259 0.0 6.0 0.00 0.07 0.00 57 1028.8
20240301061507 24 280 1.0 4.0 0.00 0.07 0.00 57 1028.7
20240301061009 24 176 2.0 3.0 0.00 0.07 0.00 56 1028.6
20240301060502 24 243 0.0 5.0 0.00 0.07 0.00 56 1028.5
20240301055510 24 192 4.0 6.0 0.00 0.14 0.00 54 1028.3
20240301054506 24 71 0.0 8.0 0.00 0.14 0.00 55 1028.1
20240301054010 24 189 0.0 7.0 0.00 0.14 0.00 54 1028.0
20240301053507 24 199 0.0 8.0 0.00 0.14 0.00 55 1027.9
20240301053009 24 106 3.0 8.0 0.00 0.14 0.00 55 1027.7
20240301052509 24 177 2.0 7.0 0.00 0.14 0.00 56 1027.5
20240301052011 24 302 1.0 7.0 0.00 0.14 0.00 55 1027.5
20240301051509 24 258 2.0 10.0 0.00 0.14 0.00 54 1027.5
20240301050509 25 155 0.0 10.0 0.00 0.14 0.00 54 1027.3
20240301050011 25 230 4.0 9.0 0.00 0.14 0.00 53 1027.3
20240301045509 25 263 1.0 11.0 0.00 0.21 0.14 51 1027.3
20240301045009 25 229 1.0 11.0 0.00 0.21 0.14 53 1027.1
20240301044506 25 192 4.0 10.0 0.00 0.21 0.14 52 1027.1
20240301044008 25 350 4.0 16.0 0.00 0.21 0.14 52 1027.1
20240301043503 25 260 5.0 16.0 0.00 0.21 0.14 52 1027.1
20240301043010 25 296 6.0 11.0 0.00 0.21 0.14 53 1027.0
20240301042506 25 113 2.0 11.0 0.00 0.21 0.14 53 1027.1
20240301041507 25 346 4.0 7.0 0.00 0.21 0.14 52 1026.9
20240301041005 25 219 6.0 7.0 0.00 0.21 0.14 50 1026.8
20240301040505 25 242 1.0 7.0 0.00 0.21 0.14 49 1026.8
20240301040012 25 295 2.0 7.0 0.00 0.21 0.14 50 1026.8
20240301035508 26 233 5.0 9.0 0.00 0.21 0.14 47 1026.7
20240301034510 26 272 4.0 15.0 0.00 0.21 0.14 48 1026.6
20240301034008 26 319 7.0 19.0 0.00 0.21 0.14 47 1026.5
20240301033505 26 215 10.0 19.0 0.00 0.21 0.14 48 1026.4
20240301032508 26 223 1.0 24.0 0.00 0.21 0.14 47 1026.3
20240301032010 26 205 4.0 12.0 0.00 0.21 0.14 48 1026.2
20240301031506 26 296 2.0 13.0 0.00 0.21 0.14 47 1026.3
20240301031009 26 248 2.0 13.0 0.00 0.21 0.14 47 1026.1
20240301030506 26 326 4.0 9.0 0.00 0.21 0.14 45 1026.1
20240301030010 26 329 2.0 9.0 0.00 0.21 0.14 47 1026.0
20240301025509 26 254 3.0 9.0 0.00 0.21 0.14 47 1026.0
20240301025010 26 166 5.0 27.0 0.00 0.21 0.14 46 1025.8
20240301024508 26 283 4.0 27.0 0.00 0.21 0.14 45 1025.8
20240301024009 26 272 3.0 12.0 0.00 0.21 0.14 47 1025.8
20240301023505 26 360 5.0 12.0 0.00 0.21 0.14 46 1025.8
20240301023008 27 279 5.0 13.0 0.00 0.21 0.14 46 1025.8
20240301022009 27 281 6.0 16.0 0.00 0.21 0.14 46 1025.6
20240301021006 27 281 8.0 12.0 0.00 0.21 0.14 45 1025.4
20240301020505 27 276 8.0 13.0 0.00 0.21 0.14 44 1025.4
20240301020010 27 259 1.0 13.0 0.00 0.21 0.14 47 1025.3
20240301015505 27 257 9.0 9.0 0.00 0.21 0.14 48 1025.1
20240301015007 27 230 1.0 8.0 0.00 0.21 0.14 50 1025.1
20240301014505 27 94 0.0 21.0 0.00 0.21 0.14 48 1025.1
20240301014007 27 155 4.0 21.0 0.00 0.21 0.14 48 1025.0
20240301013505 27 291 6.0 19.0 0.00 0.21 0.14 49 1024.8
20240301013006 27 281 0.0 19.0 0.00 0.21 0.14 50 1024.8
20240301012508 27 304 1.0 8.0 0.00 0.21 0.14 51 1024.8
20240301012007 27 188 1.0 11.0 0.00 0.21 0.14 49 1024.7
20240301011506 27 350 1.0 11.0 0.00 0.21 0.14 50 1024.6
20240301011010 27 194 6.0 10.0 0.00 0.21 0.14 51 1024.4
20240301010507 27 206 5.0 8.0 0.00 0.21 0.14 49 1024.4
20240301010012 27 237 4.0 13.0 0.00 0.21 0.14 49 1024.4
20240301005507 27 307 3.0 13.0 0.00 0.21 0.14 49 1024.3
20240301005009 27 213 0.0 8.0 0.00 0.21 0.14 51 1024.1
20240301003506 27 237 5.0 9.0 0.00 0.21 0.14 51 1024.0
20240301003009 27 287 2.0 10.0 0.00 0.21 0.14 50 1023.9
20240301002505 28 347 2.0 10.0 0.00 0.21 0.14 50 1023.8
20240301001509 28 187 4.0 8.0 0.00 0.21 0.14 49 1023.7
20240301001009 28 5 2.0 8.0 0.00 0.21 0.14 49 1023.7
20240301000508 28 315 1.0 8.0 0.00 0.21 0.14 49 1023.5
20240301000007 28 290 0.0 11.0 0.00 0.21 0.14 47 1023.5
20240229235010 28 253 5.0 14.0 0.00 0.21 0.14 46 1023.3
20240229234508 28 11 8.0 14.0 0.00 0.21 0.14 46 1023.2
20240229234008 29 10 1.0 13.0 0.00 0.21 0.14 48 1023.2
20240229233505 29 280 5.0 15.0 0.00 0.21 0.14 47 1023.1
20240229233009 29 295 4.0 15.0 0.00 0.21 0.14 46 1022.9
20240229232506 29 281 4.0 9.0 0.00 0.21 0.14 47 1022.8
20240229232008 29 40 1.0 15.0 0.00 0.21 0.14 47 1022.5
20240229231006 29 306 7.0 9.0 0.00 0.21 0.14 48 1022.3
20240229230504 29 89 0.0 7.0 0.00 0.21 0.14 49 1022.2
20240229230009 29 274 5.0 7.0 0.00 0.21 0.14 47 1022.0
20240229225504 29 65 0.0 18.0 0.00 0.21 0.14 47 1021.9
20240229225008 30 273 2.0 18.0 0.00 0.21 0.14 44 1021.7
20240229224009 30 199 10.0 13.0 0.00 0.21 0.14 46 1021.7
20240229223505 30 215 10.0 13.0 0.00 0.21 0.14 45 1021.5
20240229223011 30 254 4.0 11.0 0.00 0.21 0.14 45 1021.5
20240229222506 30 294 4.0 19.0 0.00 0.21 0.14 45 1021.5
20240229221505 31 259 6.0 19.0 0.00 0.21 0.14 41 1021.0
20240229221008 31 264 4.0 19.0 0.00 0.21 0.14 43 1021.1
20240229220505 31 236 0.0 19.0 0.00 0.21 0.14 44 1020.8
20240229220010 31 278 2.0 9.0 0.00 0.21 0.14 45 1021.0
20240229215505 31 341 1.0 9.0 0.00 0.21 0.14 45 1020.8
20240229214509 31 346 5.0 19.0 0.00 0.21 0.14 43 1020.6
20240229214012 31 217 10.0 19.0 0.00 0.21 0.14 44 1020.6
20240229213506 32 249 5.0 19.0 0.00 0.21 0.14 44 1020.5
20240229213009 32 321 5.0 10.0 0.00 0.21 0.14 41 1020.5
20240229212020 33 317 6.0 11.0 0.00 0.21 0.14 41 1020.4
20240229211506 33 309 1.0 14.0 0.00 0.21 0.14 41 1020.2
20240229211008 33 350 2.0 15.0 0.00 0.21 0.14 40 1020.1
20240229210507 33 267 3.0 15.0 0.00 0.21 0.14 41 1020.1
20240229210011 34 322 8.0 11.0 0.00 0.21 0.14 42 1020.0
20240229205507 34 270 1.0 15.0 0.00 0.21 0.14 40 1020.0
20240229205008 34 350 8.0 15.0 0.00 0.21 0.14 42 1019.8
20240229204007 35 5 1.0 20.0 0.00 0.21 0.14 38 1019.9
20240229203505 34 174 4.0 20.0 0.00 0.21 0.14 39 1019.9
20240229203009 34 268 10.0 19.0 0.00 0.21 0.14 39 1019.8
20240229202506 34 198 6.0 19.0 0.00 0.21 0.14 36 1019.7
20240229202006 35 224 4.0 19.0 0.00 0.21 0.14 37 1019.6
20240229201509 35 281 2.0 19.0 0.00 0.21 0.14 40 1019.5
20240229201009 35 51 4.0 19.0 0.00 0.21 0.14 40 1019.5
20240229200507 36 323 4.0 14.0 0.00 0.21 0.14 43 1019.3
20240229200010 36 276 6.0 12.0 0.00 0.21 0.14 38 1019.1
20240229195504 36 236 6.0 16.0 0.00 0.21 0.14 41 1019.2
20240229195007 35 316 4.0 16.0 0.00 0.21 0.14 38 1019.2
20240229194509 36 284 8.0 21.0 0.00 0.21 0.14 40 1019.4
20240229194007 35 252 10.0 21.0 0.00 0.21 0.14 36 1019.2
20240229193506 35 226 9.0 19.0 0.00 0.21 0.14 39 1019.5
20240229193008 35 222 5.0 19.0 0.00 0.21 0.14 40 1019.3
20240229192507 35 192 6.0 8.0 0.00 0.21 0.14 40 1019.4
20240229192011 35 290 2.0 8.0 0.00 0.21 0.14 47 1019.4
20240229191506 32 14 5.0 11.0 0.00 0.21 0.14 45 1019.5
20240229191006 32 190 6.0 11.0 0.00 0.21 0.14 44 1019.3
20240229190508 32 36 5.0 10.0 0.00 0.21 0.14 46 1019.4
20240229185008 32 302 1.0 10.0 0.00 0.21 0.14 49 1019.5
20240229184507 32 215 5.0 8.0 0.00 0.21 0.14 49 1019.5